{"data":{"norad_id":49728,"epoch":"2026-09-19T17:56:25.823904Z","epoch_age_seconds":109984,"freshness":"FRESH","line1":"1 49728U 21115E   26262.74752111 -.00000531  00000+0 -45797-5 0  9993","line2":"2 49728  53.1610 352.8952 0000970  87.1178 272.9935 15.34399390264892","mean_motion":15.3439939,"eccentricity":9.7e-5,"inclination_deg":53.161,"raan_deg":352.8952,"arg_perigee_deg":87.1178,"mean_anomaly_deg":272.9935,"bstar":-4.5797e-6,"rev_number":26489,"period_min":93.847795390482,"perigee_km":462.04149157709,"apogee_km":463.36861493542,"semimajor_km":6840.8420532563,"source":"CELESTRAK","updated_at":"2026-09-20T09:00:39.403541Z"}}